Hourly Weather Kozlivka

Today, 29 October, Thursday

Time Temperature Precipitation Wind Pressure Humidity
00:00 +5°C° 0 mm 3 mps 754 mmHg 88%
01:00 +5°C° 0 mm 3 mps 754 mmHg 91%
02:00 +6°C° 0 mm 2 mps 754 mmHg 96%
03:00 +5°C° 0 mm 3 mps 754 mmHg 95%
04:00 +4°C° 0 mm 3 mps 753 mmHg 95%
05:00 +4°C° 0 mm 3 mps 753 mmHg 95%
06:00 +5°C° 0 mm 3 mps 753 mmHg 91%
07:00 +5°C° 0 mm 3 mps 753 mmHg 88%
08:00 +6°C° 0 mm 4 mps 753 mmHg 84%
09:00 +7°C° 0 mm 4 mps 753 mmHg 77%
10:00 +8°C° 0 mm 4 mps 753 mmHg 69%
11:00 +10°C° 0 mm 4 mps 752 mmHg 62%
12:00 +10°C° 0 mm 3 mps 752 mmHg 60%
13:00 +11°C° 0 mm 3 mps 752 mmHg 58%
14:00 +11°C° 0 mm 3 mps 751 mmHg 58%
15:00 +10°C° 0 mm 3 mps 751 mmHg 61%
16:00 +9°C° 0 mm 2 mps 751 mmHg 65%
17:00 +8°C° 0 mm 2 mps 750 mmHg 68%
18:00 +8°C° 0 mm 2 mps 750 mmHg 68%
19:00 +8°C° 0 mm 2 mps 750 mmHg 69%
20:00 +8°C° 0 mm 3 mps 750 mmHg 69%
21:00 +8°C° 0 mm 2 mps 750 mmHg 69%
22:00 +8°C° 0 mm 2 mps 750 mmHg 69%
23:00 +8°C° 0 mm 2 mps 750 mmHg 69%

Tomorrow, 30 October, Friday

Time Temperature Precipitation Wind Pressure Humidity
00:00 +8°C° 0 mm 2 mps 749 mmHg 69%
01:00 +9°C° 0 mm 1 mps 749 mmHg 69%
02:00 +9°C° 0 mm 1 mps 749 mmHg 69%
03:00 +8°C° 0 mm 1 mps 749 mmHg 70%
04:00 +8°C° 0 mm 1 mps 749 mmHg 72%
05:00 +7°C° 0 mm 2 mps 748 mmHg 74%
06:00 +8°C° 0 mm 1 mps 749 mmHg 75%
07:00 +8°C° 0 mm 1 mps 749 mmHg 77%
08:00 +8°C° 0 mm 1 mps 749 mmHg 78%
09:00 +9°C° 0 mm 1 mps 749 mmHg 76%
10:00 +9°C° 0 mm 0 mps 749 mmHg 73%
11:00 +9°C° 0 mm 0 mps 749 mmHg 71%
12:00 +11°C° 0 mm 1 mps 749 mmHg 68%
13:00 +12°C° 0 mm 1 mps 749 mmHg 65%
14:00 +13°C° 0 mm 1 mps 749 mmHg 63%
15:00 +12°C° 0 mm 1 mps 749 mmHg 67%
16:00 +11°C° 0 mm 1 mps 749 mmHg 71%
17:00 +10°C° 0 mm 1 mps 749 mmHg 75%
18:00 +9°C° 0 mm 0 mps 749 mmHg 77%
19:00 +9°C° 0 mm 0 mps 749 mmHg 78%
20:00 +8°C° 0 mm 0 mps 749 mmHg 80%
21:00 +8°C° 0 mm 0 mps 749 mmHg 82%
22:00 +8°C° 0 mm 0 mps 749 mmHg 83%
23:00 +9°C° 0 mm 1 mps 749 mmHg 85%

Day after tomorrow, 31 October, Saturday

Time Temperature Precipitation Wind Pressure Humidity
00:00 +9°C° 0 mm 1 mps 749 mmHg 86%
01:00 +8°C° 0 mm 0 mps 748 mmHg 88%
02:00 +8°C° 0 mm 0 mps 748 mmHg 90%
03:00 +8°C° 0 mm 0 mps 748 mmHg 90%
04:00 +8°C° 0 mm 0 mps 748 mmHg 90%
05:00 +9°C° 0 mm 1 mps 748 mmHg 91%
06:00 +9°C° 0.3 mm 1 mps 748 mmHg 90%
07:00 +9°C° 0.3 mm 1 mps 749 mmHg 90%
08:00 +9°C° 0.3 mm 1 mps 749 mmHg 90%
09:00 +8°C° 0.4 mm 2 mps 749 mmHg 88%
10:00 +9°C° 0.4 mm 2 mps 749 mmHg 86%
11:00 +9°C° 0.4 mm 2 mps 749 mmHg 84%
12:00 +9°C° 0.1 mm 2 mps 749 mmHg 81%
13:00 +9°C° 0.1 mm 3 mps 749 mmHg 78%
14:00 +10°C° 0.1 mm 3 mps 749 mmHg 75%
15:00 +10°C° 0.3 mm 3 mps 749 mmHg 79%
16:00 +8°C° 0.3 mm 4 mps 750 mmHg 83%
17:00 +8°C° 0.3 mm 4 mps 750 mmHg 87%
18:00 +8°C° 0.1 mm 4 mps 750 mmHg 86%
19:00 +8°C° 0.1 mm 4 mps 750 mmHg 86%
20:00 +8°C° 0.1 mm 5 mps 751 mmHg 85%
21:00 +8°C° 0 mm 5 mps 751 mmHg 85%
22:00 +8°C° 0 mm 5 mps 751 mmHg 84%
23:00 +8°C° 0 mm 5 mps 751 mmHg 84%

1 November, Sunday

Time Temperature Precipitation Wind Pressure Humidity
00:00 +8°C° 0 mm 5 mps 751 mmHg 84%
01:00 +8°C° 0 mm 5 mps 751 mmHg 84%
02:00 +8°C° 0 mm 5 mps 751 mmHg 84%
03:00 +7°C° 0 mm 5 mps 751 mmHg 84%
04:00 +7°C° 0 mm 6 mps 750 mmHg 84%
05:00 +7°C° 0 mm 6 mps 750 mmHg 84%
06:00 +7°C° 0.2 mm 6 mps 750 mmHg 85%
07:00 +7°C° 0.2 mm 6 mps 750 mmHg 86%
08:00 +7°C° 0.2 mm 6 mps 750 mmHg 86%
09:00 +7°C° 0.8 mm 6 mps 750 mmHg 87%
10:00 +7°C° 0.8 mm 6 mps 749 mmHg 88%
11:00 +7°C° 0.8 mm 6 mps 749 mmHg 88%
12:00 +7°C° 1 mm 6 mps 749 mmHg 89%
13:00 +7°C° 1 mm 6 mps 749 mmHg 90%
14:00 +7°C° 1 mm 6 mps 749 mmHg 90%
15:00 +7°C° 0.8 mm 5 mps 749 mmHg 91%
16:00 +7°C° 0.8 mm 5 mps 749 mmHg 91%
17:00 +7°C° 0.8 mm 5 mps 749 mmHg 91%
18:00 +7°C° 0.3 mm 4 mps 749 mmHg 92%
19:00 +8°C° 0.3 mm 3 mps 749 mmHg 93%
20:00 +8°C° 0.3 mm 2 mps 749 mmHg 94%
21:00 +8°C° 0 mm 2 mps 749 mmHg 95%
22:00 +8°C° 0 mm 2 mps 749 mmHg 95%
23:00 +8°C° 0 mm 2 mps 749 mmHg 96%

2 November, Monday

Time Temperature Precipitation Wind Pressure Humidity
00:00 +8°C° 0 mm 2 mps 749 mmHg 96%
01:00 +8°C° 0 mm 2 mps 749 mmHg 96%
02:00 +8°C° 0 mm 2 mps 749 mmHg 96%
03:00 +8°C° 0 mm 2 mps 749 mmHg 96%
04:00 +9°C° 0 mm 2 mps 748 mmHg 95%
05:00 +9°C° 0 mm 3 mps 748 mmHg 95%
06:00 +9°C° 0.1 mm 3 mps 749 mmHg 95%
07:00 +9°C° 0.1 mm 3 mps 749 mmHg 94%
08:00 +8°C° 0.1 mm 4 mps 749 mmHg 94%
09:00 +9°C° 0.3 mm 3 mps 749 mmHg 93%
10:00 +9°C° 0.3 mm 3 mps 749 mmHg 92%
11:00 +9°C° 0.3 mm 3 mps 749 mmHg 91%
12:00 +10°C° 0.1 mm 3 mps 750 mmHg 87%
13:00 +10°C° 0.1 mm 2 mps 750 mmHg 82%
14:00 +12°C° 0.1 mm 2 mps 750 mmHg 78%
15:00 +12°C° 0 mm 2 mps 750 mmHg 81%
16:00 +10°C° 0 mm 2 mps 750 mmHg 83%
17:00 +9°C° 0 mm 2 mps 751 mmHg 86%
18:00 +9°C° 0 mm 2 mps 751 mmHg 87%
19:00 +9°C° 0 mm 2 mps 751 mmHg 88%
20:00 +9°C° 0 mm 3 mps 752 mmHg 89%
21:00 +9°C° 0 mm 3 mps 752 mmHg 91%
22:00 +8°C° 0 mm 3 mps 752 mmHg 93%
23:00 +8°C° 0 mm 3 mps 752 mmHg 94%

3 November, Tuesday

Time Temperature Precipitation Wind Pressure Humidity
00:00 +7°C° 0 mm 2 mps 752 mmHg 95%
01:00 +7°C° 0 mm 2 mps 753 mmHg 96%
02:00 +8°C° 0 mm 1 mps 753 mmHg 97%
03:00 +7°C° 0 mm 2 mps 753 mmHg 96%
04:00 +7°C° 0 mm 2 mps 753 mmHg 96%
05:00 +7°C° 0 mm 2 mps 754 mmHg 96%
06:00 +8°C° 0 mm 2 mps 754 mmHg 95%
07:00 +8°C° 0 mm 2 mps 754 mmHg 93%
08:00 +9°C° 0 mm 3 mps 755 mmHg 91%
09:00 +10°C° 0 mm 3 mps 755 mmHg 86%
10:00 +11°C° 0 mm 3 mps 755 mmHg 81%
11:00 +11°C° 0 mm 4 mps 756 mmHg 75%
12:00 +12°C° 0 mm 4 mps 756 mmHg 75%
13:00 +12°C° 0 mm 4 mps 756 mmHg 74%
14:00 +12°C° 0 mm 3 mps 756 mmHg 73%
15:00 +11°C° 0 mm 3 mps 756 mmHg 75%
16:00 +11°C° 0 mm 3 mps 757 mmHg 76%
17:00 +12°C° 0 mm 2 mps 757 mmHg 78%
18:00 +10°C° 0 mm 2 mps 757 mmHg 79%
19:00 +10°C° 0 mm 2 mps 758 mmHg 80%
20:00 +10°C° 0 mm 2 mps 758 mmHg 80%
21:00 +9°C° 0 mm 2 mps 759 mmHg 84%
22:00 +9°C° 0 mm 2 mps 759 mmHg 87%
23:00 +8°C° 0 mm 2 mps 759 mmHg 90%
Show more